{"data":{"norad_id":62099,"epoch":"2026-09-21T02:46:44.564448Z","epoch_age_seconds":128005,"freshness":"FRESH","line1":"1 62099U 24220M   26264.11579357  .00106058  00000+0  81853-3 0  9991","line2":"2 62099  42.9983 304.6613 0000706 254.8780 105.2010 15.70869337105692","mean_motion":15.70869337,"eccentricity":7.06e-5,"inclination_deg":42.9983,"raan_deg":304.6613,"arg_perigee_deg":254.878,"mean_anomaly_deg":105.201,"bstar":0.00081853,"rev_number":10569,"period_min":91.66898647026,"perigee_km":355.93575313324,"apogee_km":356.88667134081,"semimajor_km":6734.548212237,"source":"CELESTRAK","updated_at":"2026-09-22T09:00:49.498375Z"}}